Regional Weather Roundup
Issued by NWS Sioux Falls, SD

Home | Current Version | Previous Version | Text Only | Print | Product List | Glossary Off
Versions: 1 2 3 4 5 6 7 8 9 10 11 12 13 14 15 16 17 18 19 20 21 22 23 24 25 26 27 28 29 30 31 32 33 34 35 36 37 38 39 40 41 42 43 44 45 46 47 48 49 50

000
ASUS43 KFSD 281110
RWRFSD

WEATHER ROUNDUP FOR SE SOUTH DAKOTA/SW MINNESOTA/NW IOWA
NATIONAL WEATHER SERVICE SIOUX FALLS SD
500 AM CST SUN DEC 28 2014

NOTE: "FAIR" INDICATES FEW OR NO CLOUDS BELOW 12,000 FEET WITH NO
SIGNIFICANT WEATHER AND OR OBSTRUCTIONS TO VISIBILITY.


SDZ038>040-050-052>070-281200-
SOUTHEAST SOUTH DAKOTA

CITY           SKY/WX    TMP DP  RH WIND       PRES   REMARKS
CHAMBERLAIN    CLEAR      7   4  88 CALM      30.07S
HURON          CLEAR      1  -3  83 CALM      30.09R
MADISON        FAIR       5   5 100 CALM      30.05S
MITCHELL       CLEAR      9   7  92 W5        30.09S WCI   1
SIOUX FALLS    PTCLDY     2  -1  88 CALM      30.08S
WINNER         FAIR      14   5  67 SW8       30.03F WCI   3
YANKTON          N/A      9   3  78 CALM      30.11S VSB 3/4
$$

MNZ071-072-080-081-089-090-097-098-281200-
SOUTHWEST MINNESOTA

CITY           SKY/WX    TMP DP  RH WIND       PRES   REMARKS
FAIRMONT       CLEAR     10   5  79 SW5       30.08S WCI   2
JACKSON        CLEAR     12   9  85 SW3       30.07S
LUVERNE        PTCLDY     1  -4  78 CALM      30.09S
MARSHALL       PTCLDY    14   9  79 W9        30.07S WCI   2
MONTEVIDEO     PTCLDY    14  12  92 NW5       30.09R WCI   6
PIPESTONE      FOG        3   0  85 CALM      30.05S VSB 3/4
REDWOOD FALLS  MOCLDY    12   8  84 SW7       30.08S WCI   1
TRACY          PTCLDY    14  11  87 SW9       30.07S WCI   2
WINDOM         PTCLDY     7   3  85 CALM      30.07S
WORTHINGTON    CLEAR     10 -33  12 SW9       30.06F WCI  -2
$$

IAZ001>003-012>014-020>022-031-032-NEZ013-014-SDZ071-281200-
NORTHWEST IOWA

CITY           SKY/WX    TMP DP  RH WIND       PRES   REMARKS
CHEROKEE       CLEAR      6   4  94 CALM      30.11S
DENISON        CLEAR     12  10  92 CALM      30.10F
ESTHERVILLE    CLEAR      9   6  88 SW8       30.08F WCI  -3
LE MARS        PTCLDY     5   3  92 S5        30.11F WCI  -4
ORANGE CITY    PTCLDY     9   5  85 CALM      30.08S
SHELDON        CLEAR      1   0  92 CALM      30.07F
SIOUX CITY     PTCLDY     6   2  83 E3        30.13S
SPENCER        CLEAR      6   2  83 CALM      30.09F
STORM LAKE     CLEAR     12   9  85 SW12      30.08F WCI  -2
$$

ABBREVIATIONS USED IN REMARKS
   TC - TEMPERATURE IN CELSIUS
  WCI - WIND CHILL INDEX
   HX - HEAT INDEX
  VSB - VISIBILITY




USA.gov is the U.S. government's official web portal to all federal, state and local government web resources and services.